Regional Weather Roundup
Issued by NWS Charleston, SC

Current Version | Previous Version | Graphics & Text | Print | Product List | Glossary On
Versions: 1 2 3 4 5 6 7 8 9 10 11 12 13 14 15 16 17 18 19 20 21 22 23 24 25 26 27 28 29 30 31 32 33 34 35 36 37 38 39 40 41 42 43 44 45 46 47 48 49 50
000
ASUS42 KCHS 270928
RWRCHS

REGIONAL WEATHER ROUNDUP
NATIONAL WEATHER SERVICE CHARLESTON SC
500 AM EDT FRI MAY 27 2016

NOTE: "FAIR" INDICATES FEW OR NO CLOUDS BELOW 12,000 FEET WITH NO
SIGNIFICANT WEATHER AND/OR OBSTRUCTIONS TO VISIBILITY.

NOT ALL STATIONS ARE QUALITY CONTROLLED. USE DATA WITH CAUTION...
ESPECIALLY DEWPOINT OBSERVATIONS.

SCZ027-030-031-034>040-042>050-271000-
...SOUTHEAST SOUTH CAROLINA...

CITY           SKY/WX    TMP DP  RH WIND       PRES   REMARKS
N CHARLESTON   CLEAR     64  61  90 CALM      30.12R
WATERFRONT PRK   N/A     73  63  70 CALM      30.09R
MOUNT PLEASANT FAIR      63  63 100 CALM      30.13R FOG
JOHNS ISLAND   FAIR      64  63  94 CALM      30.13R
PINOPOLIS        N/A     70  66  88 CALM      30.05S
MONCKS CORNER  NOT AVBL
SUMMERVILLE    FAIR      61  61 100 CALM      30.13S
BEAUFORT MCAS  CLEAR     66  63  90 CALM      30.11S
BEAUFORT ARPT  FAIR      68  63  83 CALM      30.10S
HILTON HEAD IS CLEAR     64  61  88 CALM      30.11S
WALTERBORO     MOSUNNY   64  64 100 CALM      30.12S
ALLENDALE      FAIR      63  63 100 CALM      30.11S

...SOUTHERN MIDLANDS AND PEE DEE...

CITY           SKY/WX    TMP DP  RH WIND       PRES   REMARKS
GEORGETOWN     FAIR      57  55  94 CALM      30.14R
KINGSTREE      CLOUDY    61  59  94 CALM      30.12F
ORANGEBURG     CLEAR     63  61  93 CALM      30.12F
BARNWELL       FAIR      64  64 100 CALM      30.13R
AIKEN          FAIR      64  59  82 CALM      30.15S
MANNING        FAIR      61  61 100 CALM      30.13S
COLUMBIA       PTCLDY    68  61  78 SE3       30.11F
SUMTER         CLEAR     65  61  86 CALM      30.10F
FLORENCE       CLEAR     65  62  90 CALM      30.13F
MYRTLE BEACH   CLEAR     64  55  72 CALM      30.16R
N MYRTLE BEACH CLEAR     66  64  93 CALM      30.13S

$$

GAZ063-065-086>088-099>101-113>116-118-119-134>141-150-271000-
...SOUTHEAST GEORGIA...

CITY           SKY/WX    TMP DP  RH WIND       PRES   REMARKS
SAVANNAH ARPT  CLEAR     65  62  90 CALM      30.10F
HUNTER AAF     CLEAR     64  63  97 CALM      30.07F
FORT STEWART   CLEAR     61  59  92 CALM      30.08S
STATESBORO     CLEAR     63  62  97 CALM      30.10S
SYLVANIA       SUNNY     65  63  93 CALM      30.12R
CLAXTON        FAIR      60  60  99 CALM      30.10S

...CSRA...CENTRAL AND FAR SOUTHEAST GEORGIA...

CITY           SKY/WX    TMP DP  RH WIND       PRES   REMARKS
THOMSON        CLOUDY    69  63  80 CALM      30.15S
AUGUSTA-BUSH   CLEAR     62  60  93 S3        30.10S
AUGUSTA-DANIEL CLEAR     68  59  73 SE5       30.11F
SWAINSBORO     FAIR      63  61  94 CALM      30.11S
VIDALIA        CLEAR     64  61  88 CALM      30.10S
EASTMAN        FAIR      64  64 100 CALM      30.12R
HAZLEHURST     FAIR      66  64  90 CALM      30.08S
ALMA           CLEAR     60  60 100 CALM      30.08S
WAYCROSS       CLEAR     60  60 100 CALM      30.08R
JESUP          FAIR      55  55 100 CALM      30.09S
BAXLEY         FAIR      63  61  94 CALM      30.08S
BRUNSWICK      CLEAR     61  59  94 CALM      30.09R FOG
SAINT SIMONS   PTCLDY    70  59  68 E3        30.07S

$$

SCZ027-028-034-036>038-045-046-048>050-GAZ119-141-271000-
...LAKE AND SUPPLEMENTAL COASTAL OBSERVATIONS...

STATION/POSITION TIME  TEMP    WIND        PRES    WAVE   SWELL
                       AIR SEA DIR/SP/G            HT/PER HT/PER/DIR
                 (UTC) (F)     (DEG/KT/KT) (MB)    (FT/S) (FT/S/D)
WINYAH BAY       0800   67     320/  3     1019.0S
LAKE MURRAY      0800   71     190/  8/  9 1019.3S
ACE BASIN NERRS  0800   67        CALM     1020.0R
FORT PULASKI     0900   72 77  100/  2/  3 1019.5F
SAPELO ISLAND    0900   64        CALM     1019.0S

$$

ANZ835-935-AMZ111-154-330-350-352-354-370-450-454-472-271000-
...C-MAN AND BUOY OBSERVATIONS...

STATION/POSITION TIME  TEMP    WIND        PRES    WAVE   SWELL
                       AIR SEA DIR/SP/G            HT/PER HT/PER/DIR
                 (UTC) (F)     (DEG/KT/KT) (MB)    (FT/S) (FT/S/D)
BUOY 41004       0850   76 77  110/  6/  8 1018.9F   3/ 8   2/ 8
BUOY 41008       0850   76 76  100/  4/  6 1018.7R   2/ 5   2/110/ 5
FOLLY BEACH CMAN 0900   76     110/  4/  6 1019.8R
CAPERS NEARSHORE 0908   76 76  150/  4/  8 1019.7R
FRIPP NEARSHORE  0908   76 76  140/  6/  8 1019.0R


STATION/POSITION TIME  TEMP    WIND        PRES    WAVE   SWELL
                       AIR SEA DIR/SP/G            HT/PER HT/PER/DIR
                 (UTC) (F)     (DEG/KT/KT) (MB)    (FT/S) (FT/S/D)
5E ST. MARYS GA  0901      77                N/A     3/ 5
FRYING PAN BUOY  0900   76 76  110/  2/  4 1020.0S
BUOY 41025       0850   76 78  210/  8/ 12 1021.5R   2/ 7   2/140/ 7
CAPE LOOKOUT NC  0900   72     160/  2/  2 1020.7F
BUOY 41002       0850   76 77   60/ 14/ 16 1018.4F   3/ 7   2/110/ 7
BUOY 41010       0820   76 79   50/ 12/ 14 1016.4F
ST AUGUSTINE FL  0900   76 78  110/  9/ 11 1018.3S


$$



USA.gov is the U.S. government's official web portal to all federal, state and local government web resources and services.